This demonstration page uses our WeatherBlox Daily Observations layout. Learn more.

Left ArrowRight Arrow

39.01783, -85.05884

Hourly Observations for August 16, 2016

Temp ( °F °C ) Dew Point ( °F °C ) Humidity (%) Winds ( mph kmh ) Pressure ( in mb ) Visibility ( mi km ) Precip ( " mm )
12:52 am 00:52 Partly Cloudy 74 23.3 71 21.7 91 91 S 10 17 30.06 1018 10 16 N/A
1:52 am 01:52 Mostly Cloudy with Light Rain 73 22.8 72 22.2 96 96 S 7 11 30.04 1017 10 16 N/A
2:52 am 02:52 Mostly Cloudy 74 23.3 72 22.2 94 94 S 8 13 30.05 1018 10 16 N/A
3:52 am 03:52 Partly Cloudy 73 22.8 72 22.2 96 96 S 7 11 30.04 1017 10 16 N/A
4:52 am 04:52 Mostly Cloudy 73 22.8 72 22.2 96 96 S 8 13 30.04 1017 10 16 N/A
5:52 am 05:52 Cloudy 73 22.8 72 22.2 96 96 SSW 7 11 30.06 1018 10 16 N/A
6:27 am 06:27 Mostly Cloudy 73 23 72 22 94 94 S 7 11 30.06 1018 10 16 N/A
6:52 am 06:52 Mostly Cloudy 73 22.8 72 22.2 96 96 S 7 11 30.06 1018 9 14 N/A
7:52 am 07:52 Mostly Cloudy 74 23.3 73 22.8 97 97 S 6 9 30.07 1018 10 16 N/A
8:52 am 08:52 Mostly Cloudy 75 23.9 73 22.8 94 94 SSW 9 15 30.07 1018 10 16 0.01 0.25
9:52 am 09:52 Mostly Cloudy 78 25.6 74 23.3 87 87 SSW 10 17 30.07 1018 10 16 N/A
10:52 am 10:52 Mostly Cloudy 79 26.1 73 22.8 82 82 SSW 14 22 30.08 1019 10 16 N/A
11:47 am 11:47 Cloudy 79 26 72 22 79 79 SSW 13 20 30.09 1019 10 16 N/A
11:52 am 11:52 Cloudy 79 26.1 72 22.2 79 79 SSW 10 17 30.09 1019 10 16 N/A
12:44 pm 12:44 Cloudy 81 27 73 23 79 79 SW 8 13 30.09 1019 10 16 N/A
12:52 pm 12:52 Cloudy 78 25.6 73 22.8 85 85 W 15 24 30.09 1019 10 16 N/A
1:52 pm 13:52 Mostly Cloudy 80 26.7 73 22.8 79 79 SW 9 15 30.07 1018 10 16 0.02 0.51
2:52 pm 14:52 Cloudy 83 28.3 72 22.2 70 70 WSW 12 19 30.06 1018 10 16 N/A
3:40 pm 15:40 Cloudy with Rain 77 25 72 22 83 83 WSW 10 17 30.06 1018 3 5 0.01 0.25
3:46 pm 15:46 Cloudy with Heavy Rain 75 24 73 23 94 94 WNW 16 26 30.06 1018 2 3 N/A
3:52 pm 15:52 Cloudy with Heavy Rain 74 23.3 73 22.8 97 97 WNW 12 19 30.07 1018 2 3 0.18 4.57
3:57 pm 15:57 Cloudy with Rain 73 23 73 23 100 100 WNW 13 20 30.06 1018 4 6 0.05 1.27
4:13 pm 16:13 Cloudy with Light Rain 73 23 73 23 100 100 WSW 7 11 30.09 1019 6 10 0.05 1.27
4:41 pm 16:41 Cloudy with Light Rain 73 23 73 23 100 100 W 12 19 30.06 1018 4 6 0.09 2.29
4:52 pm 16:52 Cloudy with Light Rain 73 22.8 72 22.2 96 96 W 10 17 30.08 1019 6 10 0.10 2.54
5:12 pm 17:12 Cloudy 75 24 73 23 94 94 WSW 7 11 30.09 1019 10 16 0.03 0.76
5:40 pm 17:40 Cloudy 75 24 73 23 94 94 WSW 10 17 30.09 1019 10 16 N/A
5:52 pm 17:52 Cloudy 75 23.9 72 22.2 90 90 W 9 15 30.08 1019 10 16 0.03 0.76
6:04 pm 18:04 Cloudy 75 24 73 23 94 94 WSW 9 15 30.09 1019 10 16 N/A
6:52 pm 18:52 Cloudy 75 23.9 72 22.2 90 90 SW 7 11 30.08 1019 10 16 N/A
7:52 pm 19:52 Cloudy with Light Rain 75 23.9 72 22.2 90 90 SW 5 7 30.10 1019 10 16 N/A
8:52 pm 20:52 Cloudy 74 23.3 72 22.2 94 94 SW 3 6 30.11 1020 10 16 N/A
9:52 pm 21:52 Cloudy with Light Rain 73 22.8 72 22.2 96 96 N N/A 30.12 1020 10 16 N/A
10:52 pm 22:52 Cloudy 73 22.8 72 22.2 96 96 SSW 5 7 30.13 1020 10 16 N/A
11:52 pm 23:52 Cloudy 73 22.8 73 22.8 100 100 SW 5 7 30.14 1021 10 16 N/A

Powered by AerisWeather